Starlink 31706

operational
NORAD ID: 59437 Int'l Des: 2024-065 Owner: SPXS Country: US Constellation: starlink
LEOCIRCULAR

About Starlink 31706

Description loading...

Live Position

Loading 3D Globe...

Upcoming Passes

Altitude History

Altitude vs Time

uPlot chart will show altitude changes over time

Two-Line Element Set

1 59437U 24065S 25303.91350612 .00000192 00000-0 18603-4 0 9999
2 59437 53.1606 166.3585 0001172 76.4468 283.6663 15.30195489 89030
Epoch: Oct 30, 2025 • Age: 18 hours

Current Status

Altitude 477.9 km
Velocity 7.63 km/s
Sub-Earth Point 37.81°N, 31.39°E
Launch Date Apr 7, 2024
Age 1.5 years
Type internet

Technical Details

Classification Payload
Mass 730.00 kg
Dry Mass 700.00 kg
Total Mass 730.00 kg
Length 0.30 m
Diameter 4.10 m
Span 29.00 m
Shape Box + pan
Manufacturer SPXS
Bus Type Starlink V2M
Phase Status In Orbit
Owner/State SPXS/US

Large Constellations

Loading constellations...